Content
SEND FEEDBACK

Daily
Averages
Monthly
Summary
Thailand

BANGKOK, THAILAND


Home > Asia > Thailand
Elevation: 66 feet     Latitude: 13 44N     Longitude: 100 34E

WEATHER
 
SELECT A DAY
Number of Records: 235,544;   Date Range: 7/1/96 - 8/28/14
 
SHARE

PRINT THIS DATA

[ ← Previous Day ]
WEATHER ALMANAC - FEBRUARY 21, 2013
[ Next Day → ]
[ °C ]   °F
Weather ElementAverageHighLow
Temperature84.5 °F95 °F (4:00 pm) (1:00 pm)
Dewpoint75 °F77 °F (3:30 am)69.8 °F (5:00 pm)
Humidity70 %89 % (6:30 am)46 % (5:00 pm)
Barometer29.82 in29.89 in (9:30 am)29.77 in (2:30 am)
Wind Speed4.8 mph10.4 mph (1:30 pm)
Weather ElementAverage
Visibility4.7 mi
Wind DirectionSSE (159.8 °)

Weather ElementTotal
Precipitation---
Heating Degree Days17.5 (Base 65)
Averaged from 51 records on February 21, 2013
WEATHER CONDITIONS BREAKOUT
WIND DIRECTION BREAKOUT
WEATHER BY HOUR - FEBRUARY 21, 2013
[ °C ]   °F
Local TimeTemperatureDewpointHumidityBarometerVisibilityWind DirectionWind SpeedGust SpeedPrecipitationEventsConditions
12:30 AM82.4 °F75.2 °F79 %29.80 in6.2 miSSW (210°)2.3 mphScattered Clouds
1:00 AM83.0 °F75.0 °F70 %29.81 in6.0 miSSW (210°)4.6 mphScattered Clouds
1:00 AM82.4 °F75.2 °F79 %29.80 in6.2 miSSW (210°)4.6 mphScattered Clouds
1:30 AM82.4 °F75.2 °F79 %29.80 in6.2 miSSW (210°)4.6 mphScattered Clouds
2:00 AM82.4 °F75.2 °F79 %29.80 in6.2 miSSW (210°)4.6 mphScattered Clouds
2:30 AM80.6 °F75.2 °F84 %29.77 in6.2 miSSW (210°)4.6 mphScattered Clouds
3:00 AM82.4 °F75.2 °F79 %29.77 in6.2 miSSW (210°)6.9 mphScattered Clouds
3:30 AM82.4 °F77.0 °F84 %29.77 in5.6 miSSW (200°)6.9 mphMostly Cloudy
4:00 AM82.4 °F77.0 °F84 %29.77 in5.6 miSSE (150°)3.5 mphMostly Cloudy
4:30 AM82.4 °F77.0 °F84 %29.77 in5.6 miSouth (170°)3.5 mphMostly Cloudy
5:00 AM82.4 °F77.0 °F84 %29.77 in5.6 miENE (60°)3.5 mphMostly Cloudy
5:30 AM82.4 °F77.0 °F84 %29.77 in5.6 miSSE (150°)2.3 mphMostly Cloudy
6:00 AM82.4 °F77.0 °F84 %29.80 in5.0 miESE (120°)3.5 mphMostly Cloudy
6:30 AM80.6 °F77.0 °F89 %29.80 in4.3 miEast (90°)5.8 mphMostly Cloudy
7:00 AM81.0 °F77.0 °F85 %29.82 in3.0 miEast (90°)3.5 mphMist
7:00 AM80.6 °F77.0 °F89 %29.80 in3.1 miEast (90°)3.5 mphMostly Cloudy
7:30 AM80.6 °F77.0 °F89 %29.83 in3.1 miEast (100°)3.5 mphMostly Cloudy
8:00 AM80.6 °F77.0 °F89 %29.86 in3.1 miEast (100°)4.6 mphMostly Cloudy
8:30 AM82.4 °F77.0 °F84 %29.86 in3.1 miEast (100°)4.6 mphMostly Cloudy
9:00 AM82.4 °F75.2 °F79 %29.86 in3.7 miEast (100°)3.5 mphMostly Cloudy
9:30 AM84.2 °F77.0 °F79 %29.89 in4.3 miEast (100°)5.8 mphMostly Cloudy
10:00 AM86.0 °F77.0 °F74 %29.89 in4.3 miEast (90°)3.5 mphMostly Cloudy
10:30 AM87.8 °F77.0 °F70 %29.89 in5.0 miEast (80°)5.8 mphMostly Cloudy
11:00 AM87.8 °F77.0 °F70 %29.89 in5.0 miESE (110°)5.8 mphMostly Cloudy
11:30 AM87.8 °F77.0 °F70 %29.89 in5.0 miENE (70°)4.6 mphMostly Cloudy
12:00 PM89.6 °F75.2 °F62 %29.86 in5.0 miSE (140°)6.9 mphMostly Cloudy
12:30 PM89.6 °F73.4 °F59 %29.83 in5.0 miESE (110°)8.1 mphMostly Cloudy
1:00 PM91.0 °F73.0 °F47 %29.83 in5.0 miSSE (150°)5.8 mphHaze
1:00 PM0.0 °F73.4 °F29.83 in5.0 miSSE (150°)5.8 mphMostly Cloudy
1:30 PM91.4 °F73.4 °F55 %29.80 in5.0 miEast (100°)10.4 mphMostly Cloudy
2:00 PM91.4 °F73.4 °F55 %29.80 in5.0 miESE (120°)4.6 mphMostly Cloudy
2:30 PM91.4 °F73.4 °F55 %29.80 in5.0 miESE (110°)3.5 mphMostly Cloudy
3:00 PM93.2 °F73.4 °F52 %29.77 in5.0 miEast (90°)5.8 mphMostly Cloudy
3:30 PM93.2 °F73.4 °F52 %29.77 in5.0 miEast (100°)8.1 mphMostly Cloudy
4:00 PM95.0 °F73.4 °F49 %29.77 in5.0 miEast (100°)5.8 mphMostly Cloudy
4:30 PM95.0 °F73.4 °F49 %29.77 in5.0 miNE (40°)3.5 mphMostly Cloudy
5:00 PM93.2 °F69.8 °F46 %29.77 in5.0 miESE (110°)3.5 mphMostly Cloudy
5:30 PM91.4 °F71.6 °F52 %29.77 in5.0 miSSE (150°)3.5 mphMostly Cloudy
6:00 PM91.4 °F69.8 °F49 %29.77 in4.3 miSE (140°)3.5 mphMostly Cloudy
6:30 PM89.6 °F71.6 °F55 %29.80 in3.7 miWSW (250°)2.3 mphMostly Cloudy
7:00 PM89.0 °F74.0 °F53 %29.80 in4.0 miWest (270°)8.1 mphHaze
7:00 PM87.8 °F73.4 °F62 %29.80 in4.3 miWest (270°)8.1 mphMostly Cloudy
7:30 PM86.0 °F73.4 °F66 %29.80 in4.3 miWest (280°)4.6 mphMostly Cloudy
8:00 PM86.0 °F73.4 °F66 %29.83 in4.3 miNNW (330°)3.5 mphMostly Cloudy
8:30 PM86.0 °F75.2 °F70 %29.83 in4.3 miWNW (300°)6.9 mphMostly Cloudy
9:00 PM86.0 °F75.2 °F70 %29.86 in3.7 miSW (230°)5.8 mphMostly Cloudy
9:30 PM86.0 °F75.2 °F70 %29.86 in3.7 miSW (230°)3.5 mphMostly Cloudy
10:00 PM86.0 °F75.2 °F70 %29.86 in3.7 miSW (220°)2.3 mphMostly Cloudy
10:30 PM86.0 °F75.2 °F70 %29.86 in3.7 miWest (270°)2.3 mphScattered Clouds
11:00 PM86.0 °F75.2 °F70 %29.86 in3.7 miWSW (240°)3.5 mphScattered Clouds
11:30 PM84.2 °F75.2 °F74 %29.89 in3.7 miSSW (210°)3.5 mphScattered Clouds
Hourly data recorded from VTBD, located miles away from Bangkok, Thailand







STORIES FROM OUR PARTNERS